Home   Weather   Germany   Sinsheim   Past weeks
Flag for Germany

Past Weather in Sinsheim, Baden-Württemberg, Germany — Yesterday and Last 2 Weeks

Currently: 48 °F. Overcast. (Weather station: Mannheim City, Germany). See more current weather

Past Weather in Sinsheim — Graph

°F

Sinsheim Temperature Yesterday

Maximum temperature yesterday: 52 °F (at 1:20 pm)
Minimum temperature yesterday: 39 °F (at 12:20 am)
Average temperature yesterday: 46 °F

High & Low Weather Summary for the Past Weeks

 TemperatureHumidityPressure
High63 °F (Feb 16, 12:50 pm)100% (Feb 13, 4:20 am)30.57 "Hg (Feb 13, 4:20 am)
Low32 °F (Feb 13, 7:20 am)47% (Feb 13, 4:20 pm)29.21 "Hg (Feb 22, 8:50 pm)
Average49 °F76%29.96 "Hg
* Reported Feb 11 9:20 pm — Feb 26 9:50 pm, Sinsheim. Weather by CustomWeather, © 2024

Note: Actual official high and low records may vary slightly from our data, if they occured in-between our weather recording intervals... More about our weather records

Sinsheim Weather History for the Previous 24 Hours

Scroll right to see more
 ConditionsComfort  
Time TempWeatherWind HumidityBarometerVisibility
9:50 pm
Mon, Feb 26
50 °FOvercast.3 mph76%29.71 "HgN/A
9:20 pm50 °FMostly cloudy.5 mph71%29.71 "HgN/A
8:50 pm50 °FPassing clouds.5 mph71%29.68 "HgN/A
8:20 pm52 °FPassing clouds.7 mph67%29.68 "HgN/A
7:50 pm52 °FClear.7 mph67%29.65 "Hg10 mi
7:20 pm52 °FClear.8 mph67%29.65 "Hg10 mi
6:50 pm54 °FClear.10 mph67%29.62 "Hg10 mi
6:20 pm54 °FPassing clouds.8 mph72%29.62 "HgN/A
5:50 pm55 °FSunny.6 mph63%29.59 "Hg10 mi
5:20 pm55 °FSunny.6 mph63%29.59 "Hg10 mi
4:50 pm55 °FPassing clouds.6 mph63%29.56 "HgN/A
4:20 pm57 °FPassing clouds.7 mph55%29.56 "HgN/A
3:20 pm55 °FSunny.5 mph63%29.56 "Hg10 mi
2:50 pm57 °FSunny.3 mph59%29.56 "Hg10 mi
2:20 pm55 °FSunny.2 mph59%29.56 "Hg10 mi
1:50 pm55 °FPassing clouds.3 mph63%29.56 "HgN/A
1:20 pm54 °FPassing clouds.2 mph63%29.53 "HgN/A
12:50 pm54 °FSunny.2 mph63%29.53 "Hg10 mi
12:20 pm54 °FScattered clouds.3 mph67%29.53 "HgN/A
11:50 am52 °FPartly sunny.5 mph72%29.53 "HgN/A
11:20 am50 °FPartly sunny.6 mph71%29.53 "HgN/A
10:50 am50 °FOvercast.7 mph71%29.53 "HgN/A
10:20 am48 °FPartly sunny.5 mph82%29.53 "HgN/A
9:50 am48 °FDrizzle. Partly sunny.3 mph82%29.50 "HgN/A
9:20 am46 °FDrizzle. Overcast.3 mph87%29.50 "HgN/A
8:50 am46 °FDrizzle. Overcast.3 mph87%29.50 "HgN/A
8:20 am45 °FDrizzle. More clouds than sun.5 mph93%29.50 "HgN/A
7:50 am45 °FDrizzle. Partly sunny.3 mph93%29.50 "HgN/A
7:20 am46 °FPassing clouds.3 mph82%29.47 "HgN/A
6:50 am46 °FPassing clouds.5 mph82%29.47 "HgN/A
6:20 am45 °FPassing clouds.5 mph87%29.47 "HgN/A
5:50 am45 °FPassing clouds.5 mph87%29.47 "HgN/A
5:20 am45 °FMostly cloudy.6 mph87%29.47 "HgN/A
4:50 am45 °FOvercast.3 mph87%29.47 "HgN/A
4:20 am46 °FMostly cloudy.3 mph76%29.47 "HgN/A
3:50 am46 °FMostly cloudy.5 mph76%29.47 "HgN/A
3:20 am46 °FMostly cloudy.7 mph71%29.47 "HgN/A
2:50 am48 °FOvercast.8 mph62%29.47 "HgN/A
2:20 am50 °FOvercast.6 mph58%29.47 "HgN/A
1:50 am50 °FOvercast.5 mph58%29.45 "HgN/A
12:20 am50 °FOvercast.5 mph54%29.47 "HgN/A
11:50 pm
Sun, Feb 25
50 °FOvercast.7 mph54%29.47 "HgN/A
11:20 pm50 °FMostly cloudy.7 mph54%29.47 "HgN/A
Weather by CustomWeather, © 2024

See weather overview